Regional Weather Roundup
Issued by NWS Albany, NY

Current Version | Previous Version | Graphics & Text | Print | Product List | Glossary Off
Versions: 1 2 3 4 5 6 7 8 9 10 11 12 13 14 15 16 17 18 19 20 21 22 23 24 25 26 27 28 29 30 31 32 33 34 35 36 37 38 39 40 41 42 43 44 45 46 47 48 49 50

000
ASUS41 KALY 180810
RWRALY

NEW YORK STATE HOURLY WEATHER ROUNDUP
NATIONAL WEATHER SERVICE ALBANY NY
300 AM EST WED JAN 18 2017

NOTE: "FAIR" INDICATES FEW OR NO CLOUDS BELOW 12,000 FEET WITH NO
SIGNIFICANT WEATHER AND/OR NO OBSTRUCTIONS TO VISIBILITY.

NYZ032-033-038>043-046>054-057>066-NYZ062>081-082-084-180900-
EAST


CITY           SKY/WX    TMP DP  RH WIND       PRES   REMARKS
ALBANY         LGT RAIN  33  31  92 E3        29.94F FOG
GLENS FALLS    CLOUDY    33  30  88 CALM      29.94F FOG
POUGHKEEPSIE   CLOUDY    33  32  96 N3        29.93S FOG
NEWBURGH       CLOUDY    34  34 100 VRB5      29.94R FOG     WCI  30
MONTGOMERY     CLOUDY    34  33  96 N7        29.91F WCI  28
WHITE PLAINS   LGT RAIN  38  36  92 E8        29.89S FOG     WCI  32
ISLIP          CLOUDY    41  41 100 E9        29.87F FOG
NEW YORK CITY  LGT RAIN  40  38  93 NE14      29.90F FOG     WCI  32
CENTRAL PARK   CLOUDY    38  38 100 NE7       29.92F FOG     WCI  33
$$

NYZ005>009-017-018-044>046-055-056-180900-
CENTRAL


CITY           SKY/WX    TMP DP  RH WIND       PRES   REMARKS
FULTON         LGT RAIN  36  35  96 SE6       29.82R FOG     WCI  31
SYRACUSE       CLOUDY    37  35  92 NE3       29.82S
ROME           LGT RAIN  34  34 100 E8        29.88S FOG     WCI  27
ELMIRA         LGT RAIN  37  35  92 CALM      29.85R FOG
BINGHAMTON     LGT RAIN  33  33 100 S6        29.83S VSB 1/4 WCI  28
MONTICELLO     CLOUDY    30  30 100 CALM      29.89S
$$

NYZ026>034-041>043-087-180900-
NORTH


CITY           SKY/WX    TMP DP  RH WIND       PRES   REMARKS
WATERTOWN      MIX PCPN  35  35 100 CALM      29.80R VSB 3/4
FORT DRUM      NOT AVBL
OGDENSBURG     LGT RAIN  32  32  99 NE6       29.84S WCI  27
MASSENA        LGT SNOW  29  27  92 NE7       29.88F FOG     WCI  22
SARANAC LAKE   LGT SNOW  32  29  88 MISG      29.80F FOG
PLATTSBURGH    CLOUDY    34  32  92 SE12      29.92F WCI  25
$$

NYZ001>004-010>016-019>021-085-180900-
WEST


CITY           SKY/WX    TMP DP  RH WIND       PRES   REMARKS
NIAGARA FALLS  LGT RAIN  38  35  89 SW7       29.84S FOG     WCI  33
BUFFALO        DRIZZLE   37  35  92 SW14      29.85R FOG     WCI  28
DUNKIRK        LGT RAIN  38  37  97 SW16G23   29.88R FOG     WCI  29
JAMESTOWN      CLOUDY    37  34  87 W13G18    29.85S WCI  29
WELLSVILLE     LGT RAIN  41  38  89 W8G20     29.83R
ROCHESTER      DRIZZLE   41  39  93 W15       29.82R
PENN YAN       CLOUDY    39  36  89 SW8       29.82S WCI  33
$$

             KEY
       WCI = WIND CHILL INDEX
       VSB = VISIBILITY
       HX  = HEAT INDEX
$$



USA.gov is the U.S. government's official web portal to all federal, state and local government web resources and services.